CW5306 Weather Reports


time (UTC)temp
F
wind
direction
speed
knots
gust
knots
rain 1hr
in
rain 24hr
in
rain mn
in
humidity
%
barometer
mb
20260831050603 76 54 5.2 12.2 0.02 0.03 0.03 87 1016.9
20260831045833 77 131 7.8 14.8 0.00 0.02 0.02 84 1016.7
20260831045103 78 83 7.8 14.8 0.00 0.01 0.01 83 1017.0
20260831044602 77 64 5.2 17.4 0.00 0.01 0.01 83 1016.9
20260831044102 77 100 9.6 17.4 0.00 0.01 0.01 83 1016.8
20260831043602 77 98 9.6 14.8 0.00 0.01 0.01 84 1016.6
20260831043103 77 89 7.0 14.8 0.00 0.01 0.01 84 1016.6
20260831042834 78 58 6.1 18.2 0.00 0.01 0.01 85 1016.7
20260831042335 78 66 7.8 18.2 0.00 0.01 0.01 85 1016.6
20260831041839 78 46 4.3 18.2 0.01 0.01 0.01 82 1016.6
20260831041603 78 74 5.2 18.2 0.01 0.01 0.01 83 1016.5
20260831040602 78 96 3.5 20.0 0.01 0.01 0.01 83 1016.4
20260831035603 78 82 14.8 20.0 0.01 0.01 0.01 85 1016.5
20260831035103 78 92 10.4 20.0 0.01 0.01 0.01 85 1016.5
20260831034602 78 108 5.2 20.0 0.01 0.01 0.01 85 1016.4
20260831034103 78 107 12.2 18.2 0.00 0.01 0.01 85 1016.0
20260831033833 78 73 9.6 14.8 0.00 0.01 0.01 85 1015.9
20260831033102 78 74 10.4 14.8 0.00 0.01 0.01 86 1016.0
20260831032601 78 91 5.2 17.4 0.00 0.01 0.01 86 1015.9
20260831032103 78 30 10.4 18.2 0.00 0.01 0.01 86 1016.1
20260831031602 79 39 9.6 18.2 0.00 0.00 0.01 84 1016.2
20260831031059 80 82 8.7 16.5 0.00 0.00 0.00 80 1015.9
20260831030600 80 68 6.1 16.5 0.00 0.00 0.00 78 1016.1
20260831030100 80 94 7.8 16.5 0.00 0.00 0.00 77 1016.0
20260831025831 80 70 6.1 11.3 0.00 0.00 0.00 78 1016.0
20260831025101 80 135 6.1 13.0 0.00 0.00 0.00 78 1016.1
20260831024830 80 112 9.6 13.0 0.00 0.00 0.00 78 1016.0
20260831024059 80 79 3.5 14.8 0.00 0.00 0.00 78 1016.1
20260831023600 80 136 7.8 14.8 0.00 0.00 0.00 77 1016.0
20260831023059 80 54 4.3 12.2 0.00 0.00 0.00 77 1016.0
20260831022836 80 102 4.3 13.0 0.00 0.00 0.00 76 1016.2
20260831022559 80 90 5.2 12.2 0.00 0.00 0.00 76 1016.1
20260831021559 80 146 7.8 14.8 0.00 0.00 0.00 75 1016.1
20260831021058 80 139 4.3 20.9 0.00 0.00 0.00 74 1016.1
20260831020559 80 79 7.8 20.9 0.00 0.00 0.00 76 1016.5
20260831020059 80 115 8.7 18.2 0.00 0.00 0.00 76 1016.1
20260831015601 80 79 7.8 12.2 0.00 0.00 0.00 77 1016.2
20260831015046 80 62 6.1 13.0 0.00 0.00 0.00 76 1016.1
20260831014545 79 83 4.3 20.0 0.00 0.00 0.00 77 1016.3
20260831014045 80 90 6.1 20.0 0.00 0.00 0.00 77 1016.2
20260831013816 81 81 9.6 20.0 0.00 0.00 0.00 74 1016.1
20260831013046 82 49 8.7 14.8 0.00 0.00 0.00 75 1016.1
20260831012546 82 62 7.0 17.4 0.00 0.00 0.00 72 1016.1
20260831012046 83 105 9.6 21.7 0.00 0.00 0.00 73 1016.0
20260831011804 82 115 9.6 21.7 0.00 0.00 0.00 73 1016.3
20260831011033 82 107 5.2 14.8 0.00 0.00 0.00 73 1016.6
20260831010534 82 91 7.8 14.8 0.00 0.00 0.00 72 1016.4
20260831010034 83 88 8.7 17.4 0.00 0.00 0.00 71 1016.7
20260831005805 83 105 11.3 17.4 0.00 0.00 0.00 71 1016.4
20260831005035 83 62 5.2 13.9 0.00 0.00 0.00 71 1016.5
20260831004534 83 91 7.0 13.9 0.00 0.00 0.00 70 1016.5
20260831004252 83 73 5.2 13.9 0.00 0.00 0.00 71 1016.3
20260831003522 83 26 3.5 14.8 0.00 0.00 0.00 73 1016.4
20260831003022 82 103 7.8 17.4 0.00 0.00 0.00 72 1016.9
20260831002521 82 66 7.0 17.4 0.00 0.00 0.00 73 1016.6
20260831002022 82 82 6.1 14.8 0.00 0.00 0.00 73 1016.9
20260831001522 82 76 7.8 16.5 0.00 0.00 0.00 73 1016.9
20260831001022 82 113 7.0 16.5 0.00 0.00 0.00 74 1017.1
20260831000509 82 82 7.0 14.8 0.00 0.00 0.00 74 1017.1
20260831000009 82 76 7.0 16.5 0.00 0.00 0.00 74 1016.9
20260830235509 82 157 4.3 16.5 0.00 0.00 0.00 74 1017.2
20260830235009 82 115 9.6 16.5 0.00 0.00 0.00 73 1017.1
20260830234509 83 73 9.6 16.5 0.00 0.00 0.00 73 1017.0
20260830234010 82 101 9.6 16.5 0.00 0.00 0.00 73 1017.2
20260830233509 82 134 5.2 16.5 0.00 0.00 0.00 73 1017.3
20260830233010 82 79 11.3 14.8 0.00 0.00 0.00 75 1017.2
20260830232740 82 64 9.6 14.8 0.00 0.00 0.00 73 1017.4
20260830232242 82 79 6.1 16.5 0.00 0.00 0.00 76 1017.4
20260830231509 82 102 9.6 17.4 0.00 0.00 0.00 75 1017.6
20260830231241 82 116 7.8 16.5 0.00 0.00 0.00 74 1017.5
20260830230510 82 97 7.8 18.2 0.00 0.00 0.00 74 1017.5
20260830230010 82 102 7.8 18.2 0.00 0.00 0.00 74 1017.7
20260830225510 82 102 7.8 14.8 0.00 0.00 0.00 75 1017.7
20260830225010 82 106 7.8 18.2 0.00 0.00 0.00 76 1017.8
20260830224510 82 76 4.3 18.2 0.00 0.00 0.00 76 1017.9
20260830224005 83 121 9.6 16.5 0.00 0.00 0.00 76 1017.8
20260830223456 83 103 6.1 12.2 0.00 0.00 0.00 75 1018.1
20260830222956 82 61 7.0 17.4 0.00 0.00 0.00 77 1018.0
20260830222504 82 96 8.7 18.2 0.00 0.00 0.00 76 1018.1
20260830222457 82 104 11.3 18.2 0.00 0.00 0.00 75 1018.1
20260830221459 81 54 9.6 18.2 0.00 0.00 0.00 75 1018.3
20260830220957 82 82 7.0 18.2 0.00 0.00 0.00 74 1018.4
20260830220450 82 69 7.8 20.0 0.00 0.00 0.00 74 1018.2
20260830215945 82 65 10.4 20.0 0.00 0.00 0.00 75 1018.2
20260830215445 82 94 6.1 16.5 0.00 0.00 0.00 74 1017.9
20260830214945 81 40 5.2 16.5 0.00 0.00 0.00 78 1018.3
20260830214445 81 60 12.2 20.9 0.00 0.00 0.00 80 1018.3
20260830213944 80 55 6.1 20.9 0.00 0.00 0.00 81 1018.2
20260830213445 79 41 9.6 20.9 0.00 0.00 0.00 81 1018.3
20260830212945 80 60 13.0 24.3 0.00 0.00 0.00 81 1018.4
20260830212433 80 88 12.2 20.9 0.00 0.00 0.00 80 1018.5
20260830211935 81 69 11.3 14.8 0.00 0.00 0.00 76 1018.1
20260830211705 82 88 7.8 17.4 0.00 0.00 0.00 76 1018.4
20260830210932 82 108 11.3 17.4 0.00 0.00 0.00 74 1018.4
20260830210432 82 62 8.7 16.5 0.00 0.00 0.00 73 1018.2
20260830205931 82 66 8.7 16.5 0.00 0.00 0.00 75 1018.5
20260830205431 82 113 10.4 16.5 0.00 0.00 0.00 75 1018.4
20260830204932 82 68 11.3 17.4 0.00 0.00 0.00 75 1018.3
20260830204432 82 116 8.7 17.4 0.00 0.00 0.00 74 1018.5
20260830203931 81 133 7.0 16.5 0.00 0.00 0.00 72 1018.3
20260830203433 81 121 7.0 13.9 0.00 0.00 0.00 74 1018.1
20260830203201 81 116 7.8 13.9 0.00 0.00 0.00 74 1018.3
20260830202430 81 65 7.0 13.9 0.00 0.00 0.00 74 1018.2
20260830201932 80 70 7.8 13.9 0.00 0.00 0.00 75 1018.4
20260830201431 80 78 7.0 13.0 0.00 0.00 0.00 74 1018.3
20260830200931 79 120 3.5 13.9 0.00 0.00 0.00 73 1018.1
20260830200432 79 90 7.0 14.8 0.00 0.00 0.00 73 1018.7
20260830195936 77 105 7.8 13.9 0.00 0.00 0.00 76 1018.5
20260830195931 78 93 4.3 14.8 0.00 0.00 0.00 75 1018.4
20260830194930 77 75 2.6 22.6 0.00 0.00 0.00 78 1018.4
20260830194431 77 71 8.7 22.6 0.00 0.00 0.00 79 1018.7
20260830193931 78 68 13.9 20.0 0.00 0.00 0.00 77 1018.5
20260830193431 78 153 8.7 25.2 0.00 0.00 0.00 79 1018.2
20260830192930 78 103 12.2 29.5 0.00 0.00 0.00 78 1018.4
20260830192430 78 81 9.6 29.5 0.00 0.00 0.00 78 1018.3
20260830192201 80 94 8.7 22.6 0.00 0.00 0.00 78 1018.2
20260830191431 80 85 14.8 22.6 0.00 0.00 0.00 78 1018.1
20260830190931 80 92 10.4 17.4 0.00 0.00 0.00 73 1018.1
20260830190419 81 81 9.6 17.4 0.00 0.00 0.00 74 1018.0
20260830185907 80 87 7.8 17.4 0.00 0.00 0.00 75 1017.8
20260830185408 80 67 9.6 18.2 0.00 0.00 0.00 75 1017.7
20260830184907 80 100 9.6 18.2 0.00 0.00 0.00 74 1017.9
20260830184407 80 72 7.0 16.5 0.00 0.00 0.00 75 1018.1
20260830183907 79 69 7.0 16.5 0.00 0.00 0.00 75 1018.0
20260830183407 79 88 7.8 16.5 0.00 0.00 0.00 74 1017.7
20260830183138 80 99 9.6 17.4 0.00 0.00 0.00 74 1017.8
20260830182406 80 46 7.0 17.4 0.00 0.00 0.00 76 1017.6
20260830181906 80 77 7.8 17.4 0.00 0.00 0.00 76 1017.7
20260830181640 79 165 9.6 17.4 0.00 0.00 0.00 76 1018.0
20260830180906 80 97 7.8 18.2 0.00 0.00 0.00 76 1017.7
20260830180638 80 80 6.1 18.2 0.00 0.00 0.00 75 1017.6
20260830175907 80 74 9.6 17.4 0.00 0.00 0.00 75 1017.8
20260830175407 80 89 11.3 17.4 0.00 0.00 0.00 75 1017.5
20260830175140 80 81 9.6 17.4 0.00 0.00 0.00 74 1017.6
20260830174406 80 80 5.2 17.4 0.00 0.00 0.00 75 1017.5
20260830173907 79 63 5.2 14.8 0.00 0.00 0.00 76 1017.6
20260830173408 79 52 9.6 16.5 0.00 0.00 0.00 76 1017.4
20260830173138 79 43 7.0 16.5 0.00 0.00 0.00 76 1017.6
20260830172406 79 69 7.8 16.5 0.00 0.00 0.00 77 1017.4
20260830171906 79 74 7.0 18.2 0.00 0.00 0.00 76 1017.3
20260830171407 79 57 6.1 18.2 0.00 0.00 0.00 76 1017.5
20260830170908 78 100 7.0 17.4 0.00 0.00 0.00 76 1017.5
20260830170407 78 72 6.1 18.2 0.00 0.00 0.00 76 1017.1
20260830165907 78 84 9.6 18.2 0.00 0.00 0.00 77 1017.5
20260830165407 78 87 7.8 14.8 0.00 0.00 0.00 77 1017.1
20260830165138 78 91 9.6 17.4 0.00 0.00 0.00 77 1017.1
20260830164645 78 67 9.6 18.2 0.00 0.00 0.00 76 1017.1
20260830164406 78 94 11.3 18.2 0.00 0.00 0.00 76 1017.2
20260830163406 78 32 6.1 16.5 0.00 0.00 0.00 77 1017.1
20260830162906 77 79 7.8 16.5 0.00 0.00 0.00 77 1017.1
20260830162406 78 126 7.8 17.4 0.00 0.00 0.00 77 1017.0
20260830161906 78 37 7.8 17.4 0.00 0.00 0.00 78 1016.9
20260830161406 77 93 4.3 14.8 0.00 0.00 0.00 78 1016.9
20260830160907 78 107 4.3 13.9 0.00 0.00 0.00 78 1016.9
20260830160406 78 98 6.1 16.5 0.00 0.00 0.00 79 1016.8
20260830155912 77 103 8.7 16.5 0.00 0.00 0.00 78 1016.8
20260830155906 77 86 8.7 16.5 0.00 0.00 0.00 77 1016.9
20260830154906 78 72 6.1 17.4 0.00 0.00 0.00 79 1016.6
20260830154407 77 101 7.8 20.0 0.00 0.00 0.00 78 1016.9
20260830153906 77 64 11.3 20.0 0.00 0.00 0.00 78 1016.6
20260830153406 77 92 8.7 16.5 0.00 0.00 0.00 78 1016.5
20260830152906 77 76 6.1 13.9 0.00 0.00 0.00 79 1016.6
20260830152407 77 95 7.0 17.4 0.00 0.00 0.00 78 1016.6
20260830151907 77 129 6.1 17.4 0.00 0.00 0.00 78 1016.7
20260830151406 78 87 6.1 20.0 0.00 0.00 0.00 79 1016.7
20260830150907 77 66 15.6 20.0 0.00 0.00 0.00 77 1016.6
20260830150407 77 73 8.7 17.4 0.00 0.00 0.00 77 1016.6
20260830145907 78 100 6.1 16.5 0.00 0.00 0.00 78 1016.3
20260830145407 78 76 9.6 16.5 0.00 0.00 0.00 78 1016.2
20260830145139 77 73 10.4 16.5 0.00 0.00 0.00 78 1016.1
20260830144407 77 108 7.8 16.5 0.00 0.00 0.00 78 1016.2
20260830144138 77 104 9.6 14.8 0.00 0.00 0.00 79 1016.2
20260830143407 77 116 6.1 18.2 0.00 0.00 0.00 78 1016.4
20260830142909 77 103 7.0 18.2 0.00 0.00 0.00 79 1016.1
20260830142407 77 57 8.7 20.0 0.00 0.00 0.00 79 1016.3
20260830141912 77 87 7.8 21.7 0.00 0.01 0.00 79 1016.2
20260830141907 77 109 5.2 20.0 0.00 0.01 0.00 79 1016.1
20260830140906 77 90 13.0 20.9 0.00 0.01 0.00 79 1016.0
20260830140406 77 72 11.3 18.2 0.00 0.01 0.00 79 1016.1
20260830135908 77 96 12.2 16.5 0.00 0.01 0.00 80 1015.9
20260830135637 77 87 9.6 20.0 0.00 0.01 0.00 80 1016.0
20260830134907 77 75 11.3 20.0 0.00 0.01 0.00 79 1016.1
20260830134407 77 95 10.4 17.4 0.00 0.01 0.00 78 1016.2
20260830134138 77 99 13.0 17.4 0.00 0.01 0.00 79 1016.0
20260830133407 77 84 9.6 18.2 0.00 0.01 0.00 79 1015.9
20260830132906 77 70 9.6 18.2 0.00 0.01 0.00 79 1015.9
20260830132406 78 99 7.8 20.0 0.00 0.01 0.00 79 1015.8
20260830131906 78 81 9.6 20.0 0.00 0.01 0.00 79 1015.9
20260830131406 78 47 5.2 18.2 0.00 0.01 0.00 78 1016.1
20260830131143 78 87 7.0 18.2 0.00 0.01 0.00 78 1016.1
20260830130906 78 103 7.0 18.2 0.00 0.01 0.00 78 1015.9
20260830125906 78 72 9.6 18.2 0.00 0.01 0.00 78 1016.0
20260830125406 78 89 6.1 18.2 0.00 0.01 0.00 78 1016.0
20260830124906 78 148 9.6 18.2 0.00 0.01 0.00 77 1016.1
20260830124407 77 99 7.8 18.2 0.00 0.01 0.00 77 1016.1
20260830124138 78 90 9.6 18.2 0.00 0.01 0.00 79 1016.0
20260830124012 78 121 7.8 18.2 0.00 0.01 0.00 78 1016.1
20260830122907 78 112 10.4 20.0 0.00 0.01 0.00 78 1016.2
20260830122406 78 57 10.4 20.0 0.00 0.01 0.00 78 1016.1
20260830121906 77 48 5.2 17.4 0.00 0.01 0.00 77 1016.2
20260830121407 78 67 7.0 18.2 0.00 0.01 0.00 78 1016.4
20260830120907 78 92 6.1 18.2 0.00 0.01 0.00 78 1016.4
20260830120639 78 89 8.7 16.5 0.00 0.01 0.00 77 1016.4
20260830115907 78 22 5.2 17.4 0.00 0.01 0.00 76 1016.4
20260830115407 78 70 10.4 17.4 0.00 0.01 0.00 78 1016.5
20260830114907 78 101 5.2 17.4 0.00 0.01 0.00 79 1016.6
20260830114407 78 76 3.5 17.4 0.00 0.01 0.00 77 1016.4
20260830113907 78 115 2.6 21.7 0.00 0.01 0.00 78 1016.7
20260830113406 78 82 7.0 21.7 0.00 0.01 0.00 79 1016.6
20260830112906 78 48 13.9 17.4 0.00 0.01 0.00 78 1016.8
20260830112406 78 78 6.1 14.8 0.00 0.01 0.00 78 1016.9
20260830111907 78 123 9.6 17.4 0.00 0.01 0.00 77 1016.8
20260830111406 78 67 7.8 22.6 0.00 0.01 0.00 78 1016.7
20260830111139 78 110 8.7 22.6 0.00 0.01 0.00 78 1016.8
20260830110408 78 73 4.3 20.9 0.00 0.01 0.00 78 1016.7
20260830105907 78 102 7.0 20.9 0.00 0.01 0.00 77 1016.9
20260830105407 78 56 11.3 18.2 0.00 0.01 0.00 78 1016.6
20260830105139 78 76 11.3 18.2 0.00 0.01 0.00 78 1017.1
20260830104407 78 81 9.6 16.5 0.00 0.01 0.00 79 1016.9
20260830103907 78 91 11.3 17.4 0.00 0.01 0.00 78 1017.0
20260830103407 78 100 5.2 18.2 0.00 0.01 0.00 78 1016.9
20260830102907 78 74 9.6 18.2 0.00 0.01 0.00 78 1017.2
20260830102637 78 95 7.0 18.2 0.00 0.01 0.00 79 1017.0
20260830101906 78 72 8.7 18.2 0.00 0.01 0.00 77 1017.2
20260830101406 78 67 5.2 18.2 0.00 0.01 0.00 77 1016.9
20260830100907 78 121 5.2 18.2 0.00 0.01 0.00 76 1017.0
20260830100407 78 38 6.1 20.9 0.00 0.01 0.00 76 1017.0
20260830100137 78 84 9.6 20.9 0.00 0.01 0.01 75 1016.9
20260830095638 78 110 10.4 20.0 0.00 0.01 0.01 77 1016.8
20260830094906 78 127 6.1 20.0 0.00 0.01 0.01 76 1017.0
20260830094407 78 94 7.8 20.9 0.00 0.01 0.01 78 1017.0
20260830093906 78 105 7.0 20.9 0.00 0.01 0.01 78 1017.0
20260830093407 78 72 6.1 20.0 0.00 0.01 0.01 77 1017.0
20260830092907 78 78 13.0 20.0 0.00 0.01 0.01 78 1016.8
20260830092407 78 78 13.0 25.2 0.00 0.01 0.01 77 1017.2
20260830092136 78 64 11.3 25.2 0.00 0.01 0.01 78 1017.3
20260830091405 78 81 9.6 20.0 0.00 0.01 0.01 77 1017.4
20260830090904 78 113 9.6 20.0 0.00 0.01 0.01 78 1017.5
20260830090636 78 77 8.7 22.6 0.00 0.01 0.01 78 1017.8
20260830085904 78 94 7.8 22.6 0.00 0.01 0.01 78 1017.8
20260830085404 78 84 14.8 21.7 0.00 0.01 0.01 79 1017.9
20260830085135 78 84 13.0 20.0 0.00 0.01 0.01 79 1017.8
20260830084403 78 94 7.8 17.4 0.00 0.01 0.01 80 1017.7
20260830084134 78 67 7.0 17.4 0.00 0.01 0.01 79 1017.9
20260830083404 78 80 7.0 20.9 0.00 0.01 0.01 79 1018.0
20260830082903 78 78 9.6 20.9 0.00 0.01 0.01 78 1017.8
20260830082636 78 72 4.3 20.0 0.00 0.01 0.01 78 1017.7
20260830081904 78 69 11.3 20.9 0.00 0.01 0.01 79 1018.1
20260830081404 78 78 9.6 20.9 0.00 0.01 0.01 78 1017.9
20260830080903 78 111 13.0 18.2 0.00 0.01 0.01 77 1017.8
20260830080403 78 77 8.7 18.2 0.00 0.01 0.01 77 1017.6
20260830075903 78 107 11.3 16.5 0.00 0.01 0.01 78 1017.7
20260830075403 78 96 5.2 16.5 0.00 0.01 0.01 79 1017.4
20260830075135 78 79 7.0 16.5 0.00 0.01 0.01 79 1017.3
20260830074404 78 84 10.4 16.5 0.00 0.01 0.01 79 1017.5
20260830073904 78 98 0.0 16.5 0.00 0.01 0.01 78 1017.3
20260830073409 78 109 2.6 18.2 0.00 0.01 0.01 77 1017.2
20260830073403 78 116 7.0 18.2 0.00 0.01 0.01 78 1017.1
20260830072402 78 73 3.5 20.0 0.00 0.01 0.01 77 1017.1
20260830071905 78 88 9.6 20.0 0.00 0.01 0.01 77 1016.8
20260830071634 78 70 11.3 25.2 0.00 0.01 0.01 79 1016.9
20260830070902 78 61 7.8 25.2 0.00 0.01 0.01 79 1017.1
20260830070404 78 79 11.3 21.7 0.00 0.01 0.01 80 1016.9
20260830065903 78 67 9.6 21.7 0.00 0.01 0.01 80 1017.0
20260830065402 78 109 7.0 20.0 0.00 0.01 0.01 81 1016.8
20260830064902 78 53 11.3 20.0 0.00 0.01 0.01 81 1016.9
20260830064634 78 110 11.3 20.9 0.00 0.01 0.01 81 1016.9
20260830063902 78 71 5.2 20.9 0.00 0.01 0.01 80 1016.8
20260830063402 78 102 5.2 20.0 0.00 0.01 0.01 80 1016.9
20260830062901 78 87 7.8 18.2 0.00 0.01 0.01 79 1017.0
20260830062401 78 100 11.3 18.2 0.00 0.01 0.01 81 1016.9
20260830061902 78 91 8.7 22.6 0.00 0.01 0.01 82 1016.4
20260830061401 78 71 11.3 22.6 0.00 0.01 0.01 82 1016.5
20260830060907 78 108 12.2 17.4 0.00 0.01 0.01 81 1016.4
20260830060901 78 114 5.2 20.0 0.00 0.01 0.01 81 1016.4
20260830055902 78 72 8.7 17.4 0.00 0.01 0.01 81 1016.0
20260830055632 78 72 12.2 20.0 0.00 0.01 0.01 81 1016.2
20260830054900 78 80 8.7 20.0 0.00 0.01 0.01 80 1016.1
20260830054400 78 104 9.6 18.2 0.00 0.01 0.01 81 1016.1
20260830053901 78 119 5.2 18.2 0.00 0.01 0.01 81 1016.0
20260830053401 78 117 7.0 20.0 0.00 0.01 0.01 81 1016.3
20260830052901 78 111 11.3 21.7 0.00 0.01 0.01 81 1016.1
20260830052401 78 141 9.6 21.7 0.00 0.01 0.01 82 1016.0
20260830051859 78 72 8.7 18.2 0.00 0.01 0.01 83 1015.9
20260830051359 78 71 11.3 21.7 0.00 0.01 0.01 84 1015.7